{"data":{"norad_id":62150,"intl_designator":"2024-224M","name":"STARLINK-32629","alt_names":[],"object_type":"PAYLOAD","status":"ACTIVE","operator":null,"country":"US","launch_date":"2024-11-30","launch_site_code":"AFETR","launch_vehicle":null,"mission":null,"orbit_class":"UNKNOWN","rcs_meters":null,"size_class":null,"mass_kg":null,"dimensions":null,"purposes":["comms"],"wikipedia_slug":null,"has_3d_model":false,"image_url":null,"decayed_at":null,"tle_current":{"epoch":"2026-05-25T04:27:13.878720Z","epoch_age_seconds":53014,"freshness":"FRESH","line1":"1 62150U 24224M   26145.18557730  .00026240  00000+0  95871-3 0  9998","line2":"2 62150  42.9996  85.7006 0001217 268.2282  91.8430 15.27613084 84185","mean_motion":15.27613084,"eccentricity":0.0001217,"inclination_deg":42.9996,"raan_deg":85.7006,"arg_perigee_deg":268.2282,"mean_anomaly_deg":91.843,"bstar":0.00095871,"rev_number":8418,"period_min":94.264707148842,"perigee_km":482.11503813781,"apogee_km":483.78502672151,"semimajor_km":6861.0870324297,"source":"CELESTRAK","updated_at":"2026-05-25T13:38:19.571417Z"}}}